Hourly Data Report for October 05, 2013

All times are specified in Local Standard Time (LST). Add 1 hour to adjust for Daylight Saving Time where and when it is observed.

FORT LIARD
NORTHWEST TERRITORIES

60°14'00.000" N
123°28'00.000" W
213.40 m
2201579
71497
WJL

Download Data

Hourly Data (October 2013)
Hourly Data Report for October 5, 2013
Temp Definition
°C
Dew Point Temp Definition
°C
Rel Hum Definition
%
Wind Dir Definition
10's deg

Wind Spd Definition
km/h
Visibility Definition
km
Stn Press Definition
kPa
Hmdx Definition


Wind Chill Definition


Weather Definition


TIME
00:00 2.6 1.9 95 23 7   98.07     LegendNANA
01:00 2.2 1.6 96 22 4   98.09     LegendNANA
02:00 1.2 0.4 94   0   98.12     LegendNANA
03:00 1.9 1.3 96 20 2   98.15     LegendNANA
04:00 2.2 1.6 96 21 6   98.13     LegendNANA
05:00 3.1 2.4 95 22 9   98.15     LegendNANA
06:00 3.0 1.8 92 17 9   98.15     LegendNANA
07:00 2.7 2.0 95 21 6   98.18     LegendNANA
08:00 3.0 2.3 95 21 11   98.18     LegendNANA
09:00 4.3 3.0 91 20 6   98.24     LegendNANA
10:00 5.4 4.1 91 8 6   98.29     LegendNANA
11:00 5.9 3.7 86 6 15   98.35     LegendNANA
12:00 5.7 3.1 83 7 11   98.39     LegendNANA
13:00 6.8 3.3 78 6 11   98.44     LegendNANA
14:00 7.5 3.0 73 7 13   98.47     LegendNANA
15:00 8.5 3.1 69 6 13   98.50     LegendNANA
16:00 8.4 3.5 71 5 9   98.51     LegendNANA
17:00 8.6 2.8 67 3 9   98.57     LegendNANA
18:00 5.9 2.1 77 6 7   98.61     LegendNANA
19:00 3.2 0.8 84 8 6   98.66     LegendNANA
20:00 2.0 1.3 95 10 4   98.69     LegendNANA
21:00 1.1 0.3 94   0   98.72     LegendNANA
22:00 0.1 -0.5 96   0   98.73     LegendNANA
23:00 -1.1 -1.7 96   0   98.73     LegendNANA

Notes on Data Quality.

Legend

  • E = Estimated
  • M = Missing
  • NA = Not Available
  • ‡ = Partner data that is not subject to review by the National Climate Archives
Date modified: